KD8OUK Weather Reports


Display with metric or nautical units.
time (UTC)temp
F
wind
direction
speed
MPH
gust
MPH
rain 1hr
in
rain 24hr
in
rain mn
in
humidity
%
barometer
mb
20260504170523 72 250 8.0 13.0 0.00 0.00 0.00 55 1007.7
20260504151025 63 264 9.0 13.0 0.00 0.00 0.00 67 1008.8
20260504150515 62 234 7.0 14.0 0.00 0.00 0.00 68 1008.8
20260504141019 58 248 7.0 9.0 0.00 0.00 0.00 73 1008.9
20260504140517 58 243 6.0 10.0 0.00 0.00 0.00 74 1008.9
20260504130532 54 216 5.0 8.0 0.00 0.00 0.00 74 1009.5
20260504110532 46 68 1.0 2.0 0.00 7.08 0.00 86 1009.5
20260504100526 45 68 0.0 2.0 0.00 7.08 0.00 85 1009.7
20260504081533 45 203 0.0 2.0 0.00 7.08 0.00 84 1010.5
20260504081025 45 180 0.0 2.0 0.00 7.08 0.00 83 1010.5
20260504080517 45 0.0 1.0 0.00 7.08 0.00 83 1010.5
20260504050522 49 200 1.0 4.0 0.00 7.08 0.00 78 1012.4
20260504045524 49 201 1.0 3.0 0.00 7.08 0.00 78 1012.4
20260504045016 49 197 2.0 5.0 0.00 7.08 0.00 78 1012.3
20260504044527 49 171 2.0 4.0 0.00 7.08 0.00 78 1012.3
20260504044019 49 88 2.0 4.0 0.00 7.08 0.00 78 1012.3
20260504043529 49 155 2.0 3.0 0.00 7.08 0.00 79 1012.4
20260504043021 49 160 2.0 4.0 0.00 7.08 0.00 79 1012.4
20260504042531 49 176 2.0 3.0 0.00 7.08 0.00 79 1012.5
20260504042023 49 161 2.0 4.0 0.00 7.08 0.00 79 1012.6
20260504041515 49 172 2.0 3.0 0.00 7.08 0.00 79 1012.6
20260504041020 49 175 2.0 3.0 0.00 7.08 0.00 79 1012.6
20260504040530 49 190 2.0 4.0 0.00 7.08 0.00 80 1012.6
20260504040027 49 146 2.0 5.0 0.00 7.08 0.00 80 1012.7
20260504035532 48 179 2.0 5.0 0.00 7.08 7.08 80 1012.8
20260504035024 48 148 2.0 3.0 0.00 7.08 7.08 80 1012.8
20260504034518 48 168 2.0 3.0 0.00 7.08 7.08 81 1012.9
20260504034027 48 190 2.0 4.0 0.00 7.08 7.08 81 1012.9
20260504033526 48 182 2.0 5.0 0.00 7.08 7.08 81 1013.1
20260504033023 48 195 2.0 4.0 0.00 7.08 7.08 81 1013.1
20260504032515 48 179 2.0 4.0 0.00 7.08 7.08 80 1013.1
20260504032020 48 188 2.0 3.0 0.00 7.08 7.08 80 1013.1
20260504031518 48 198 2.0 5.0 0.00 7.08 7.08 80 1013.1
20260504031016 48 204 2.0 5.0 0.00 7.08 7.08 80 1013.3
20260504030520 48 118 2.0 3.0 0.00 7.08 7.08 81 1013.3
20260504030025 48 140 2.0 7.0 0.00 7.08 7.08 82 1013.3
20260504025517 48 168 2.0 4.0 0.00 7.08 7.08 82 1013.3
20260504025027 48 179 1.0 3.0 0.00 7.08 7.08 82 1013.3
20260504024520 48 181 2.0 3.0 0.00 7.08 7.08 83 1013.3
20260504024030 48 112 1.0 3.0 0.00 7.08 7.08 83 1013.3
20260504023522 48 68 0.0 2.0 0.00 7.08 7.08 85 1013.3
20260504023032 47 68 2.0 2.0 0.00 7.08 7.08 86 1013.3
20260504022525 47 107 2.0 2.0 0.00 7.08 7.08 87 1013.4
20260504022017 47 155 2.0 3.0 0.00 7.08 7.08 87 1013.4
20260504021526 47 169 1.0 2.0 0.00 7.08 7.08 87 1013.5
20260504021020 47 158 2.0 3.0 0.00 7.08 7.08 86 1013.6
20260504020530 47 166 2.0 3.0 0.00 7.08 7.08 86 1013.6
20260504020023 47 171 2.0 3.0 0.00 7.08 7.08 85 1013.5
20260504015532 47 184 2.0 3.0 0.00 7.08 7.08 84 1013.5
20260504015024 47 208 2.0 3.0 0.00 7.08 7.08 84 1013.5
20260504014516 47 197 2.0 6.0 0.00 7.08 7.08 85 1013.4
20260504014026 47 205 1.0 3.0 0.00 7.08 7.08 86 1013.4
20260504013519 46 224 2.0 4.0 0.00 7.08 7.08 86 1013.5
20260504013029 46 207 2.0 4.0 0.00 7.08 7.08 86 1013.5
20260504012521 46 238 3.0 5.0 0.00 7.08 7.08 87 1013.4
20260504012032 46 231 2.0 3.0 0.00 7.08 7.08 86 1013.3
20260504011523 46 210 2.0 4.0 0.00 7.08 7.08 86 1013.2
20260504011016 46 206 3.0 5.0 0.00 7.08 7.08 86 1013.1
20260504010525 46 149 2.0 4.0 0.00 7.08 7.08 87 1013.1
20260504010018 46 199 2.0 5.0 0.00 7.08 7.08 87 1013.4
20260504005527 46 186 2.0 3.0 0.00 7.08 7.08 87 1013.4
20260504005020 46 103 1.0 2.0 0.00 7.08 7.08 87 1013.4
20260504004524 46 110 2.0 3.0 0.00 7.08 7.08 88 1013.4
20260504004022 46 177 1.0 2.0 0.00 7.08 7.08 89 1013.4
20260504003521 46 204 1.0 4.0 0.00 7.08 7.08 89 1013.3
20260504003019 46 162 3.0 4.0 0.00 7.08 7.08 89 1013.3
20260504002517 46 174 3.0 4.0 0.00 7.08 7.08 89 1013.3
20260504002015 46 159 3.0 4.0 0.00 7.08 7.08 89 1013.3
20260504001519 46 159 3.0 4.0 0.00 7.08 7.08 89 1013.3
20260504001030 46 159 3.0 4.0 0.00 7.08 7.08 89 1013.4
20260504000523 47 166 3.0 3.0 0.00 7.08 7.08 89 1013.4
20260504000032 47 156 2.0 4.0 0.00 7.08 7.08 89 1013.6
20260503235524 47 162 3.0 4.0 0.00 7.08 7.08 89 1013.7
20260503235016 47 166 3.0 4.0 0.00 7.08 7.08 88 1013.8
20260503234527 47 138 2.0 3.0 0.00 7.08 7.08 88 1013.8
20260503234019 47 155 1.0 2.0 0.00 7.08 7.08 87 1013.8
20260503233529 47 169 1.0 3.0 0.00 7.08 7.08 87 1013.7
20260503233021 47 0.0 0.0 0.00 7.08 7.08 87 1013.7
20260503232531 47 0.0 0.0 0.00 7.08 7.08 87 1014.0
20260503232024 47 158 0.0 2.0 0.00 7.08 7.08 87 1014.1
20260503231516 47 164 2.0 2.0 0.00 7.08 7.08 87 1014.2
20260503231027 47 170 1.0 2.0 0.00 7.08 7.08 86 1014.5
20260503230518 47 175 2.0 3.0 0.00 7.08 7.08 86 1014.5
20260503230029 47 270 6.0 6.0 0.00 7.08 7.08 86 1014.9
20260503225521 47 259 5.0 10.0 0.00 7.08 7.08 86 1015.0
20260503225032 48 238 7.0 11.0 0.00 7.08 7.08 84 1015.0
20260503224523 48 274 8.0 11.0 0.00 7.08 7.08 82 1015.0
20260503224015 49 271 11.0 16.0 0.00 7.08 7.08 79 1015.0
20260503223526 49 276 11.0 17.0 0.00 7.08 7.08 76 1015.2
20260503223018 50 252 11.0 16.0 0.00 7.08 7.08 73 1015.2
20260503222528 50 203 8.0 8.0 0.00 7.08 7.08 72 1015.2
20260503222019 50 273 14.0 17.0 0.00 7.08 7.08 70 1015.2
20260503221529 51 266 13.0 19.0 0.00 7.08 7.08 68 1015.1
20260503221021 51 262 12.0 20.0 0.00 7.08 7.08 66 1015.0
20260503220525 53 229 12.0 13.0 0.00 7.08 7.08 62 1015.0
20260503220023 53 265 10.0 13.0 0.00 7.08 7.08 60 1014.6
20260503215521 54 285 12.0 18.0 0.00 7.08 7.08 57 1014.5
20260503215019 55 273 13.0 22.0 0.00 7.08 7.08 52 1014.4
20260503214517 57 244 13.0 19.0 0.00 7.08 7.08 45 1014.3
20260503214016 57 247 9.0 13.0 0.00 7.08 7.08 45 1014.3
20260503213519 58 241 10.0 14.0 0.00 7.08 7.08 44 1014.3
20260503213029 58 254 10.0 13.0 0.00 7.08 7.08 44 1014.3
20260503212521 58 257 11.0 16.0 0.00 7.08 7.08 43 1014.3
20260503212032 59 258 11.0 16.0 0.00 7.08 7.08 42 1014.3
20260503211524 59 255 11.0 16.0 0.00 7.08 7.08 43 1014.4
20260503211017 59 260 9.0 17.0 0.00 7.08 7.08 43 1014.5
20260503210526 59 251 7.0 11.0 0.00 7.08 7.08 44 1014.5
20260503210019 59 240 10.0 15.0 0.00 7.08 7.08 42 1014.6
20260503205529 59 263 9.0 14.0 0.00 7.08 7.08 43 1014.7
20260503205021 59 257 11.0 14.0 0.00 7.08 7.08 42 1014.7
20260503204531 59 264 8.0 13.0 0.00 7.08 7.08 42 1014.7
20260503204023 59 266 11.0 16.0 0.00 7.08 7.08 41 1014.7
20260503203517 0 293 8.0 8.0 0.00 7.08 7.08 1015.0
20260503203026 60 277 10.0 16.0 0.00 7.08 7.08 41 1015.0
20260503202518 60 260 9.0 13.0 0.00 7.08 7.08 40 1015.0
20260503202028 61 267 11.0 17.0 0.00 7.08 7.08 40 1015.0
20260503201520 61 252 9.0 15.0 0.00 7.08 7.08 41 1015.1
20260503201030 61 250 10.0 16.0 0.00 7.08 7.08 40 1015.2
20260503200525 61 247 9.0 16.0 0.00 7.08 7.08 40 1015.2
20260503200015 61 255 9.0 15.0 0.00 7.08 7.08 40 1015.2
20260503195525 61 252 11.0 13.0 0.00 7.08 7.08 39 1015.2
20260503195017 62 263 11.0 15.0 0.00 7.08 7.08 39 1015.3
20260503194528 62 269 11.0 17.0 0.00 7.08 7.08 39 1015.4
20260503194021 63 271 11.0 19.0 0.00 7.08 7.08 38 1015.4
20260503193531 63 281 10.0 10.0 0.00 7.08 7.08 38 1015.5
20260503193023 62 250 10.0 16.0 0.00 7.08 7.08 38 1015.5
20260503192516 63 248 10.0 13.0 0.00 7.08 7.08 38 1015.6
20260503192026 62 254 10.0 14.0 0.00 7.08 7.08 38 1015.7
20260503191518 63 267 11.0 16.0 0.00 7.08 7.08 39 1015.7
20260503191022 62 281 10.0 13.0 0.00 7.08 7.08 39 1015.9
20260503190520 63 247 10.0 13.0 0.00 7.08 7.08 38 1015.9
20260503190018 62 251 11.0 22.0 0.00 7.08 7.08 38 1016.1
20260503185516 63 255 11.0 13.0 0.00 7.08 7.08 38 1016.2
20260503185033 62 265 10.0 16.0 0.00 7.08 7.08 38 1016.2
20260503184525 63 257 11.0 17.0 0.00 7.08 7.08 38 1016.2
20260503184018 62 248 10.0 14.0 0.00 7.08 7.08 37 1016.3
20260503183529 62 238 10.0 17.0 0.00 7.08 7.08 39 1016.5
20260503183020 61 256 9.0 13.0 0.00 7.08 7.08 40 1016.5
20260503182530 62 245 11.0 14.0 0.00 7.08 7.08 39 1016.7
20260503182022 62 285 10.0 14.0 0.00 7.08 7.08 39 1016.7
20260503181532 62 232 9.0 12.0 0.00 7.08 7.08 40 1016.7
20260503181024 62 264 11.0 17.0 0.00 7.08 7.08 40 1016.7
20260503180517 62 270 11.0 15.0 0.00 7.08 7.08 40 1016.7
20260503180027 62 238 10.0 13.0 0.00 7.08 7.08 39 1016.8
20260503175520 61 245 9.0 18.0 0.00 7.08 7.08 41 1016.8
20260503175029 61 254 10.0 13.0 0.00 7.08 7.08 40 1016.8
20260503174521 61 245 11.0 16.0 0.00 7.08 7.08 40 1016.9
20260503174031 61 238 14.0 17.0 0.00 7.08 7.08 41 1016.9
20260503173523 61 215 8.0 12.0 0.00 7.08 7.08 41 1017.0
20260503173015 62 269 10.0 12.0 0.00 7.08 7.08 40 1017.0
20260503172526 63 248 9.0 10.0 0.00 7.08 7.08 41 1017.1
20260503172019 61 276 10.0 17.0 0.00 7.08 7.08 41 1017.1
20260503171528 62 270 13.0 16.0 0.00 7.08 7.08 40 1017.2
20260503171021 61 234 8.0 16.0 0.00 7.08 7.08 40 1017.3